Location: Ceske Budejovice
(48.9830°N, 14.4670°E)
Time: 16:52:57
(UTC+02:00)

DX 1 - Pass Details

Date: 21 August 2019
Orbit: 620 x 630 km, 98.4° (Epoch: 20 September)

Event Time Altitude Azimuth Distance (km) Brightness Sun altitude
Rises 04:58:22 0° 184° (S) 2,883 ? -10.2°
Reaches altitude 10° 05:00:39 10° 192° (SSW) 1,982 ? -9.9°
Maximum altitude 05:04:42 39° 262° (W) 942 ? -9.4°
Drops below altitude 10° 05:08:46 10° 331° (NNW) 2,000 ? -8.8°
Sets 05:11:06 0° 340° (NNW) 2,913 ? -8.5°
